This is the latest recevied weather packets stored in our database for station/object KI4NG. If no packets are shown the sender has not sent any weather packets the latest 10 day(s).
| Time | Temp. | Humidity | Pressure | Rain* | Wind** | Luminosity | Snow |
|---|---|---|---|---|---|---|---|
| 1788353469 | 22.78° C | 97% | 1022.8 hPa | 0 mm | - | 58 W/m² | - |
| 1788353166 | 22.78° C | 97% | 1022.8 hPa | 0 mm | - | 69 W/m² | - |
| 1788352865 | 22.78° C | 97% | 1022.8 hPa | 0 mm | - | 67 W/m² | - |
| 1788352562 | 22.22° C | 98% | 1022.7 hPa | 0 mm | - | 53 W/m² | - |
| 1788352256 | 22.22° C | 99% | 1022.8 hPa | 0 mm | - | 53 W/m² | - |
| 1788351956 | 21.67° C | 99% | 1022.5 hPa | 0 mm | - | 49 W/m² | - |
| 1788351652 | 21.11° C | 99% | 1022.8 hPa | 0 mm | - | 39 W/m² | - |
| 1788351351 | 21.11° C | 99% | 1022.9 hPa | 0 mm | - | 37 W/m² | - |
| 1788351046 | 21.11° C | 99% | 1022.8 hPa | 0 mm | - | 34 W/m² | - |
| 1788350743 | 21.11° C | 99% | 1022.5 hPa | 0 mm | - | 32 W/m² | - |
| 1788350438 | 21.11° C | 99% | 1022.5 hPa | 0 mm | - | 29 W/m² | - |
| 1788350139 | 21.11° C | 99% | 1022.5 hPa | 0 mm | - | 27 W/m² | - |
| 1788349835 | 21.11° C | 99% | 1022.5 hPa | 0 mm | - | 25 W/m² | - |
| 1788349531 | 20.56° C | 99% | 1022.3 hPa | 0 mm | - | 22 W/m² | - |
| 1788349231 | 20.56° C | 99% | 1022.4 hPa | 0 mm | - | 19 W/m² | - |
| 1788348926 | 20.56° C | 99% | 1022.1 hPa | 0 mm | - | 16 W/m² | - |
| 1788348622 | 20.56° C | 99% | 1022.2 hPa | 0 mm | - | 12 W/m² | - |
| 1788348317 | 21.11° C | 99% | 1022.1 hPa | 0 mm | - | 8 W/m² | - |
| 1788348014 | 21.11° C | 99% | 1022.1 hPa | 0 mm | - | 6 W/m² | - |
| 1788347710 | 21.11° C | 99% | 1022.1 hPa | 0 mm | - | 3 W/m² | - |
| 1788347405 | 21.11° C | 99% | 1022 hPa | 0 mm | - | 2 W/m² | - |
| 1788347101 | 21.11° C | 99% | 1021.9 hPa | 0 mm | - | 0 W/m² | - |
| 1788346796 | 21.11° C | 99% | 1021.7 hPa | 0 mm | - | 0 W/m² | - |
| 1788346491 | 21.11° C | 99% | 1021.8 hPa | 0 mm | - | 0 W/m² | - |
| 1788346191 | 21.11° C | 99% | 1021.8 hPa | 0 mm | - | 0 W/m² | - |
* Rain latest hour (hover to see other rain measurements)
** Current wind speed in m/s (hover to see current wind gust speed)